www.pogodaiklimat.ru

Погода и климат >> Архив погоды >> Италия >> Казерта


ПОГОДА в Казерте

  • Прогноз погоды в Казерте
  • Монитор погоды в Казерте

АРХИВ ПОГОДЫ в Казерте

Время (UTC), дата Ветер
(напр.,м/с)
 
Видим.   Явления Облачность Т
(С)
Тd
(С)
f
(%)
Тe
(С)
Тes
(С)
Комфортность P
(гПа)
Po
(гПа)
Тmin
(С)
Tmax
(С)
R
(мм)
R24
(мм)
S
(см)
23 16.01 штиль 0 н/о н/о +6.9 +4.2 83 +6 +6 1024.8 1016.3
22 16.01 штиль 0 н/о н/о +6.6 +3.7 82 +6 +6 1025.0 1016.5
00 17.01 штиль 0 н/о н/о +6.9 +4.0 82 +6 +6 1024.1 1015.7
01 17.01 штиль 0 н/о н/о +5.9 +2.8 80 +5 +5 1024.0 1015.5
02 17.01 штиль 0 н/о н/о +4.8 +1.9 81 +4 +4 1023.8 1015.3
03 17.01 штиль 0 н/о н/о +3.9 +1.4 84 +3 +3 1023.3 1014.8
05 17.01 СВ 1 н/о н/о +4.0 +2.3 89 +4 +4 1022.3 1013.8
04 17.01 СВ 1 н/о н/о +3.4 +1.1 85 +3 +3 1022.7 1014.2
06 17.01 штиль 0 н/о н/о +4.6 +2.9 89 +4 +4 1022.3 1013.8 +3.3 0
07 17.01 СВ 1 н/о н/о +5.3 +3.6 89 +5 +5 1022.0 1013.5
08 17.01 штиль 0 н/о н/о +6.2 +4.5 89 +5 +5 1022.0 1013.6
09 17.01 штиль 0 н/о н/о +8.0 +5.1 82 +7 +7 1022.0 1013.6
11 17.01 ЮЗ 2 н/о н/о +12.4 +5.2 61 +12 +12 1021.0 1012.7
10 17.01 Ю 2 н/о н/о +10.8 +5.3 69 +10 +10 1021.8 1013.5
12 17.01 Ю 2 н/о н/о +12.5 +5.3 61 +12 +12 1020.0 1011.8
13 17.01 ЮЗ 2 н/о н/о +12.3 +5.2 62 +12 +12 1019.2 1011.0
14 17.01 ЮЗ 2 н/о н/о +12.3 +5.8 64 +12 +12 1019.1 1010.9
17 17.01 Ю 2 н/о н/о +11.3 +6.0 70 +11 +11 1018.5 1010.2
16 17.01 ЮЗ 2 н/о н/о +11.7 +5.7 67 +11 +11 1018.6 1010.3
18 17.01 Ю 1 н/о н/о +10.6 +4.9 68 +10 +10 1018.3 1010.0 +12.8
19 17.01 Ю 1 н/о н/о +10.3 +4.6 68
20 17.01 Ю 2 н/о н/о +9.9 +4.8 71 +9 +9 1017.8 1009.5
23 17.01 ЮВ 1 н/о н/о +9.7 +8.8 94 +9 +9 1017.3 1009.0
22 17.01 З 1 н/о н/о +9.3 +6.5 83 +10 +10 1017.8 1009.5
00 18.01 штиль 0 н/о н/о +9.3 +8.1 92 +8 +8 1016.5 1008.2 4
01 18.01 Ю 1 н/о н/о +9.2 +8.3 94 +9 +9 1016.3 1008.0
02 18.01 СВ 1 н/о н/о +9.3 +8.4 94 +10 +10 1016.2 1007.9
05 18.01 штиль 0 н/о н/о +8.2 +7.3 94 +7 +7 1014.8 1006.5
04 18.01 СВ 1 н/о н/о +8.8 +7.9 94 +9 +9 1015.2 1006.9
06 18.01 СВ 1 н/о н/о +7.7 +6.9 95 +8 +8 1015.0 1006.7 +7.6 4 501
07 18.01 СВ 1 н/о н/о +7.3 +6.4 94 +7 +7 1015.4 1007.0
08 18.01 ЮВ 1 н/о н/о +8.6 +8.6 100 +9 +9 1015.7 1007.4
09 18.01 Ю 1 н/о н/о +10.1 +10.1 100 +9 +9 1015.8 1007.5
11 18.01 ЮВ 2 н/о н/о +11.9 +9.1 83 +11 +11 1015.6 1007.4
10 18.01 Ю 1 н/о н/о +11.4 +10.8 96 +11 +11 1016.0 1007.8
12 18.01 З 3 н/о н/о +13.1 +7.7 70 +12 +12 1015.1 1006.9
13 18.01 З 3 н/о н/о +13.4 +6.9 65 +13 +13 1014.7 1006.5
14 18.01 ЮЗ 3 н/о н/о +14.0 +7.5 65 +13 +13 1014.5 1006.3
15 18.01 Ю 2 н/о н/о +12.9 +7.7 71 +12 +12 1014.6 1006.4
17 18.01 штиль 0 н/о н/о +10.4 +5.5 72 +10 +10 1014.7 1006.4
16 18.01 штиль 0 н/о н/о +11.6 +5.6 67 +11 +11 1014.6 1006.4
18 18.01 ЮВ 1 н/о н/о +9.7 +6.2 79 +10 +10 1015.1 1006.8 +14.4
19 18.01 З 1 н/о н/о +9.5 +6.2 80 +9 +9 1015.2 1006.9
20 18.01 СВ 1 н/о н/о +8.6 +5.7 82 +9 +9 1015.2 1006.9
21 18.01 Ю 1 н/о н/о +9.4 +7.7 89 +10 +10 1016.0 1007.7
23 18.01 СВ 1 н/о н/о +8.6 +7.5 93 +9 +9 1016.3 1008.0
22 18.01 ЮВ 1 н/о н/о +9.0 +7.8 92 +8 +8 1016.5 1008.2
00 19.01 СВ 1 н/о н/о +7.9 +6.7 92 +8 +8 1016.0 1007.7 4
01 19.01 СВ 1 н/о н/о +7.5 +6.4 93
02 19.01 СВ 1 н/о н/о +7.3 +6.7 96 +6 +6 1015.7 1007.3
03 19.01 СВ 1 н/о н/о +7.2 +7.2 100 +6 +6 1015.4 1007.0
05 19.01 СВ 1 н/о н/о +7.6 +7.6 100 +6 +6 1014.6 1006.3
04 19.01 СВ 1 н/о н/о +7.5 +7.5 100 +6 +6 1014.9 1006.5
06 19.01 СВ 2 н/о н/о +7.4 +6.6 95 +6 +6 1015.0 1006.6 +7.0 4 603
07 19.01 В 1 н/о н/о +7.7 +7.1 96 +7 +7 1015.1 1006.8
08 19.01 В 1 н/о н/о +7.7 +6.9 95 +8 +8 1015.4 1007.1
09 19.01 штиль 0 н/о н/о +8.0 +7.1 94 +7 +7 1015.9 1007.6
11 19.01 Ю 1 н/о н/о +10.3 +6.8 79 +10 +10 1015.4 1007.1
10 19.01 В 1 н/о н/о +8.9 +7.2 89 +8 +8 1016.0 1007.7
12 19.01 ЮВ 2 н/о н/о +10.8 +7.1 78 +10 +10 1014.6 1006.4 0.4
13 19.01 В 1 н/о н/о +8.1 +5.9 86 +7 +7 1015.1 1006.8
14 19.01 В 1 н/о н/о +9.2 +7.5 89 +9 +9 1014.7 1006.4
15 19.01 С 1 н/о н/о +9.7 +7.4 86 +10 +10 1014.7 1006.4
17 19.01 штиль 0 н/о н/о +7.6 +5.7 88 +7 +7 1014.9 1006.5
16 19.01 В 1 н/о н/о +9.0 +6.2 83 +8 +8 1014.5 1006.2
18 19.01 СВ 1 н/о н/о +6.5 +5.1 91 +6 +6 1015.0 1006.6 +11.0 2
19 19.01 СВ 1 н/о н/о +6.2 +5.3 94 +6 +6 1015.2 1006.8
20 19.01 СВ 1 н/о н/о +5.5 +4.6 94 +5 +5 1015.2 1006.8
21 19.01 СВ 1 н/о н/о +5.5 +4.8 95 +4 +4 1015.4 1007.0
23 19.01 СВ 1 н/о н/о +5.1 +5.1 100 +4 +4 1015.7 1007.3
22 19.01 СВ 1 н/о н/о +5.4 +5.0 97 +4 +4 1015.7 1007.3
00 20.01 СВ 2 н/о н/о +5.5 +5.5 100 +3 +3 1015.3 1006.9
01 20.01 СВ 1 н/о н/о +5.8 +5.8 100 +4 +4 1015.1 1006.7
02 20.01 Ю 1 н/о н/о +6.0 +4.9 93 +6 +6 1015.2 1006.8
03 20.01 СВ 1 н/о н/о +6.0 +4.8 92 +5 +5 1014.7 1006.3
05 20.01 СВ 1 н/о н/о +6.4 +4.4 87 +5 +5 1014.2 1005.8
04 20.01 СВ 1 н/о н/о +6.1 +4.4 89 +5 +5 1014.3 1005.9
06 20.01 СВ 2 н/о н/о +6.6 +4.2 85 +5 +5 1014.3 1005.9 +5.0 403
07 20.01 СВ 2 н/о н/о +6.7 +4.0 83 +5 +5 1014.6 1006.2
08 20.01 СВ 2 н/о н/о +6.7 +3.8 82 +5 +5 1015.0 1006.6
09 20.01 СВ 1 н/о н/о +7.7 +4.4 80 +7 +7 1015.3 1007.0
11 20.01 СВ 1 н/о н/о +9.9 +5.8 76 +10 +10 1014.7 1006.4
10 20.01 СВ 1 н/о н/о +8.4 +4.9 79 +8 +8 1015.5 1007.2
12 20.01 В 2 н/о н/о +11.2 +4.8 65 +11 +11 1014.0 1005.8
13 20.01 Ю 1 н/о н/о +10.8 +4.4 65 +11 +11 1014.0 1005.8
14 20.01 ЮВ 2 н/о н/о +9.8 +3.5 65 +9 +9 1013.9 1005.6
15 20.01 СВ 1 н/о н/о +10.1 +4.8 70 +11 +11 1013.7 1005.4
17 20.01 СВ 1 н/о н/о +9.1 +5.4 78 +10 +10 1013.7 1005.4
16 20.01 В 1 н/о н/о +10.0 +5.3 73 +11 +11 1013.5 1005.2
18 20.01 СВ 1 н/о н/о +8.0 +5.4 84 +7 +7 1013.9 1005.6 +11.4
19 20.01 СВ 2 н/о н/о +8.1 +5.5 84 +7 +7 1014.1 1005.8
20 20.01 СВ 1 н/о н/о +8.2 +5.1 81 +7 +7 1014.0 1005.7
21 20.01 СВ 1 н/о н/о +8.4 +5.6 83 +8 +8 1014.0 1005.7
23 20.01 СВ 1 н/о н/о +7.7 +5.8 88 +8 +8 1014.3 1006.0
22 20.01 СВ 2 н/о н/о +8.5 +5.9 84 +7 +7 1014.3 1006.0
00 21.01 СВ 1 н/о н/о +6.7 +5.2 90 +6 +6 1014.2 1005.8
01 21.01 СВ 1 н/о н/о +7.1 +6.0 93 +6 +6 1014.2 1005.8
02 21.01 СВ 1 н/о н/о +7.5 +5.8 89 +7 +7 1013.9 1005.6
03 21.01 СВ 1 н/о н/о +7.3 +5.3 87 +7 +7 1013.6 1005.3
05 21.01 СВ 1 н/о н/о +7.5 +4.9 84 +7 +7 1013.5 1005.2
04 21.01 СВ 1 н/о н/о +7.7 +5.3 85 +7 +7 1013.5 1005.2
06 21.01 СВ 2 н/о н/о +7.5 +4.9 84 +6 +6 1013.7 1005.4 +6.6 403
07 21.01 СВ 2 н/о н/о +8.2 +5.3 82 +7 +7 1013.6 1005.3
08 21.01 СВ 1 н/о н/о +8.8 +5.3 79 +8 +8 1013.7 1005.4
09 21.01 СВ 1 н/о н/о +9.4 +5.9 79 +9 +9 1013.9 1005.6
11 21.01 СВ 2 н/о н/о +9.7 +6.9 83 +9 +9 1013.4 1005.1
10 21.01 Ю 1 н/о н/о +9.5 +7.2 86 +10 +10 1014.2 1005.9
12 21.01 штиль 0 н/о н/о +9.9 +7.1 83 +9 +9 1013.0 1004.7
13 21.01 В 1 н/о н/о +9.8 +7.2 84 +10 +10 1012.7 1004.4
14 21.01 СВ 2 н/о н/о +9.2 +7.5 89 +7 +7 1012.2 1003.9
15 21.01 В 2 н/о н/о +8.9 +7.0 88 +8 +8 1011.8 1003.5
17 21.01 С 1 н/о н/о +8.5 +7.3 92 +9 +9 1011.9 1003.6
16 21.01 ЮВ 2 н/о н/о +9.0 +6.8 86 +8 +8 1012.0 1003.7
18 21.01 СВ 2 н/о н/о +8.2 +7.3 94 +7 +7 1011.1 1002.8 +10.2 3
19 21.01 В 3 н/о н/о +8.7 +6.8 88 +6 +6 1010.6 1002.3
20 21.01 В 2 н/о н/о +8.7 +6.5 86 +7 +7 1010.3 1002.0
21 21.01 В 3 н/о н/о +9.0 +6.8 86 +7 +7 1010.4 1002.1
23 21.01 В 2 н/о н/о +8.7 +7.0 89 +7 +7 1009.9 1001.6
22 21.01 В 2 н/о н/о +8.6 +6.9 89 +7 +7 1010.0 1001.7
00 22.01 В 2 н/о н/о +8.6 +6.9 89 +7 +7 1008.9 1000.6 0.8
01 22.01 В 2 н/о н/о +8.8 +6.9 88 +7 +7 1008.5 1000.2
02 22.01 В 2 н/о н/о +8.6 +7.2 91 +7 +7 1007.7 999.4
03 22.01 В 1 н/о н/о +8.5 +6.9 90 +8 +8 1007.1 998.8
05 22.01 В 1 н/о н/о +8.0 +7.2 95 +7 +7 1006.2 997.9
04 22.01 СВ 1 н/о н/о +8.3 +7.4 94 +7 +7 1006.2 997.9
06 22.01 СВ 2 н/о н/о +8.2 +8.2 100 +6 +6 1005.7 997.4 +7.9 6 503
07 22.01 СВ 2 н/о н/о +8.2 +7.4 95 +7 +7 1005.0 996.8
08 22.01 В 2 н/о н/о +8.4 +6.8 90 +6 +6 1004.1 995.9
09 22.01 СЗ 3 н/о н/о +8.3 +7.1 92 +6 +6 1004.9 996.7
11 22.01 СВ 1 н/о н/о +8.8 +8.8 100 +8 +8 1003.9 995.7
10 22.01 В 1 н/о н/о +8.4 +8.4 100 +7 +7 1004.6 996.4
12 22.01 ЮЗ 2 н/о н/о +9.7 +9.7 100 +8 +8 1003.7 995.5 3
13 22.01 З 3 н/о н/о +9.1 +7.2 88 +7 +7 1004.2 996.0
14 22.01 З 3 н/о н/о +9.2 +7.6 90 +7 +7 1004.4 996.2
15 22.01 З 3 н/о н/о +9.0 +5.5 79 +7 +7 1004.6 996.4
17 22.01 ЮЗ 1 н/о н/о +7.8 +5.6 86 +8 +8 1004.6 996.3
16 22.01 З 2 н/о н/о +9.1 +5.8 80 +8 +8 1004.4 996.2
18 22.01 Ю 1 н/о н/о +7.5 +5.8 89 +8 +8 1004.7 996.4 +9.9 4
19 22.01 штиль 0 н/о н/о +6.9 +5.2 89 +6 +6 1004.7 996.4
20 22.01 В 1 н/о н/о +6.5 +5.0 90 +6 +6 1004.8 996.5
21 22.01 С 1 н/о н/о +6.0 +4.5 90 +5 +5 1005.0 996.7
23 22.01 СВ 1 н/о н/о +5.3 +4.2 93 +5 +5 1005.2 996.9
22 22.01 СВ 1 н/о н/о +5.7 +4.5 92 +4 +4 1005.3 997.0
00 23.01 Ю 1 н/о н/о +5.6 +5.0 96 +5 +5 1004.7 996.4 0.6
01 23.01 В 1 н/о н/о +5.0 +3.9 93 +5 +5 1004.4 996.1
02 23.01 С 2 н/о н/о +4.8 +4.1 95 +2 +2 1004.1 995.8
03 23.01 В 1 н/о н/о +4.3 +3.4 94 +4 +4 1003.1 994.8
05 23.01 штиль 0 н/о н/о +3.5 +2.6 94 +2 +2 1002.4 994.0
04 23.01 В 1 н/о н/о +4.0 +3.1 94 +4 +4 1002.7 994.3
06 23.01 СВ 1 н/о н/о +3.3 +2.7 96 +3 +3 1002.2 993.8 +3.3 3 401
07 23.01 СЗ 1 н/о н/о +3.8 +3.8 100 +3 +3 1002.6 994.2
08 23.01 СВ 1 н/о н/о +4.0 +4.0 100 +2 +2 1001.4 993.1
09 23.01 Ю 1 н/о н/о +5.5 +5.5 100 +4 +4 1001.3 993.0
11 23.01 ЮВ 1 н/о н/о +8.4 +3.8 73 +8 +8 999.7 991.5
10 23.01 Ю 2 н/о н/о +7.1 +4.4 83 +5 +5 1000.8 992.6
12 23.01 Ю 1 н/о н/о +9.3 +3.8 68 +9 +9 998.9 990.7 0.2
13 23.01 ЮЗ 2 н/о н/о +9.8 +3.2 63 +9 +9 997.8 989.7
14 23.01 Ю 2 н/о н/о +10.4 +3.1 61 +9 +9 996.9 988.8
15 23.01 СЗ 3 н/о н/о +7.0 +4.1 82 +4 +4 997.4 989.2
16 23.01 В 1 н/о н/о +6.4 +4.4 87 +5 +5 996.8 988.6
18 23.01 СВ 1 н/о н/о +5.5 +4.0 90 +4 +4 996.2 987.9 +5.7
19 23.01 СВ 1 н/о н/о +4.6 +3.2 91 +4 +4 995.8 987.5
20 23.01 СВ 1 н/о н/о +4.2 +3.2 93 +3 +3 995.1 986.8
21 23.01 СВ 1 н/о н/о +3.8 +2.8 93 +2 +2 994.9 986.6

 

Местоположение метеостанции Казерта (Италия): широта 41.07 долгота 14.32 высота над уровнем моря 61 м.

В архиве по умолчанию представлена погода в Казерте за последнюю неделю. Архивные данные за месяц целиком и за предыдущие месяцы, начиная с января 2011 года, Вы можете получить, выбрав интересующий диапазон дат из раскрывающегося списка и нажав кнопку "Ввод!".


*Определитесь, кто Вы:
робот инопланетянин человек

Внимание! Время в таблицах - всемирное. Для получения местного времени необходимо прибавить поправку, которая равна 1 ч.

Смотрите также архив погоды в соседних городах и на ближайших метеорологических станциях:

Погода в Граццанизе (Италия) (21 км)
Погода в Неаполе (Италия) (25 км)
Погода на Капри (Италия) (59 км)
Погода в Кампобассо (Италия) (62 км)
Погода в Тревико (Италия) (76 км)
Погода в Торре-Олеволе (Италия) (102 км)
Погода во Фрозиноне (Италия) (106 км)
Погода на Понце (Италия) (116 км)
Погода в Фучино (Италия) (117 км)
Погода в Термоли (Италия) (118 км)

Пояснения к столбцам:

Ветер - указаны скорость ветра в м/с - средняя за 10 мин, порывы в срок и между сроками (в фигурных скобках) и направление, откуда дует ветер: С - северный, СВ - северо-восточный, В - восточный, ЮВ - юго-восточный, Ю - южный, ЮЗ - юго-западный, З - западный, СЗ - северо-западный.
Видимость - горизонтальная дальность видимости в метрах или километрах. При видимости от 1 до 10 км при отсутствии осадков обычно наблюдается дымка, при ухудшении видимости до 1 км и менее - туман. В сухую погоду видимость может ухудшаться дымом, пылью или мглою.
Явления - указаны атмосферные явления, наблюдавшиеся в срок или в последний час перед сроком; фигурными скобками обозначены явления, наблюдавшиеся между сроками (за 1-3 часа до срока); квадратными скобками обозначены град или гололедные отложения с указанием их диаметра в мм.
Облачность - указаны через наклонную черту общая и нижняя облачность в баллах и высота нижней границы облаков в метрах; квадратными скобками обозначены формы облаков: Ci - перистые, Cs - перисто-слоистые, Cc - перисто-кучевые, Ac - высококучевые, As - высокослоистые, Sc - слоисто-кучевые, Ns - слоисто-дождевые, Cu - кучевые, Cb - кучево-дождевые. Подробнее классификацию облаков см. в Атласе облаков (PDF).
T - Температура воздуха - температура, измеренная на высоте 2 м над землей.
Td - Температура точки росы - температура, при понижении до которой содержащийся в воздухе водяной пар достигнет насыщения.
f - Относительная влажность воздуха - влажноcть воздуха, измеренная на высоте 2 м над землей.
Te - Эффективная температура - температура, которую ощущает одетый по сезону человек в тени. Характеристика душности погоды. При расчете учитывается влияние влажности воздуха и скорости ветра на теплоощущения человека.
Tes - Эффективная температура на солнце - температура, которую ощущает человек, с поправкой на солнечный нагрев. Характеристика знойности погоды. Зависит от высоты солнца над горизонтом, облачности и скорости ветра. Ночью, в пасмурную погоду, а также при ветре 12 м/с и более поправка равна нулю.
P - Атмосферное давление - приведенное к уровню моря атмосферное давление.
Po - Атмосферное давление - измеренное на уровне метеостанции атмосферное давление.
Tmin - Минимальная температура - минимум температуры воздуха на высоте 2 м над землей.
Tmax - Максимальная температура - максимум температуры воздуха на высоте 2 м над землей.
R - Количество осадков - Количество выпавших осадков за период времени, мм. При наведении курсора мыши на число - период времени, за который выпало указанное количество осадков.
R24 - Количество осадков - Количество выпавших осадков за 24 часа, мм.
S - Снежный покров - Высота снежного покрова, см. При наведении курсора мыши на число - состояние снежного покрова и степень покрытия местности в баллах.